Location: Huntsville
(41.2590°N, 111.7678°W)
Time: 08:08:04
(UTC+00:00)

Vanguard 3 - Pass Details

Date: 21 June 2021
Orbit: 508 x 3261 km, 33.4° (Epoch: 29 July)

Event Time Altitude Azimuth Distance (km) Brightness Sun altitude
Rises 12:57:41 0° 211° (SSW) 2,870 9.5 9.7°
Maximum altitude 13:02:39 10° 158° (SSE) 1,727 8.9 10.6°
Drops below altitude 10° 13:02:43 10° 157° (SSE) 1,726 8.9 10.6°
Sets 13:07:19 0° 104° (ESE) 2,652 10.8 11.4°
